time, beta470, beta532, beta650
yyyy/mm/dd HH:MM:SS.fff, counts, counts, counts
2023/06/11 01:00:01.331, 133, 175, 136
2023/06/11 01:00:02.467, 133, 184, 138
2023/06/11 01:00:03.603, 142, 177, 134
2023/06/11 01:00:04.723, 132, 184, 137
2023/06/11 01:00:05.859, 136, 168, 139
2023/06/11 01:00:06.995, 131, 168, 131
2023/06/11 01:00:08.114, 130, 172, 135
2023/06/11 01:00:09.251, 130, 168, 133
2023/06/11 01:00:10.387, 132, 166, 135
2023/06/11 01:00:11.506, 133, 178, 136
2023/06/11 01:00:12.642, 134, 168, 134
2023/06/11 01:00:13.778, 133, 167, 128
2023/06/11 01:00:14.898, 140, 170, 133
2023/06/11 01:00:16.034, 132, 168, 137
2023/06/11 01:00:17.170, 130, 167, 133
2023/06/11 01:00:18.290, 134, 170, 134
2023/06/11 01:00:19.426, 128, 171, 133
2023/06/11 01:00:20.562, 133, 171, 135
2023/06/11 01:00:21.681, 136, 164, 141
2023/06/11 01:00:22.818, 133, 169, 134
2023/06/11 01:00:23.953, 145, 171, 134
2023/06/11 01:00:25.074, 134, 171, 139
2023/06/11 01:00:26.210, 134, 172, 145
2023/06/11 01:00:27.345, 130, 168, 134
2023/06/11 01:00:28.465, 133, 173, 137
2023/06/11 01:00:29.601, 131, 186, 136
2023/06/11 01:00:30.737, 137, 170, 134
2023/06/11 01:00:31.857, 137, 169, 138
2023/06/11 01:00:32.993, 133, 166, 139
2023/06/11 01:00:34.129, 129, 177, 137
2023/06/11 01:00:35.249, 134, 172, 145
2023/06/11 01:00:36.385, 143, 182, 131
2023/06/11 01:00:37.520, 136, 193, 135
2023/06/11 01:00:38.641, 137, 188, 134
2023/06/11 01:00:39.777, 140, 192, 137
2023/06/11 01:00:40.913, 150, 190, 139
2023/06/11 01:00:42.032, 253, 192, 135
2023/06/11 01:00:43.168, 132, 168, 136
2023/06/11 01:00:44.304, 130, 169, 132
2023/06/11 01:00:45.424, 140, 176, 135
2023/06/11 01:00:46.560, 135, 177, 138
2023/06/11 01:00:47.696, 146, 177, 132
2023/06/11 01:00:48.816, 132, 176, 138
2023/06/11 01:00:49.952, 131, 169, 139
2023/06/11 01:00:51.088, 131, 167, 135
2023/06/11 01:00:52.208, 150, 194, 134
2023/06/11 01:00:53.344, 147, 162, 134
2023/06/11 01:00:54.480, 133, 159, 133
2023/06/11 01:00:55.600, 133, 164, 132
2023/06/11 01:00:56.736, 177, 167, 136
2023/06/11 01:00:57.872, 142, 187, 136
2023/06/11 01:00:58.991, 144, 183, 134
2023/06/11 01:01:00.127, 284, 176, 136
2023/06/11 01:01:01.263, 253, 177, 138
2023/06/11 01:01:02.383, 136, 170, 139
2023/06/11 01:01:03.519, 198, 177, 140
2023/06/11 01:01:04.655, 133, 172, 134
2023/06/11 01:01:05.791, 1805, 168, 134
2023/06/11 01:01:06.911, 228, 175, 134
2023/06/11 01:01:08.047, 139, 195, 138
2023/06/11 01:01:09.183, 131, 177, 140
2023/06/11 01:01:10.303, 132, 170, 145
2023/06/11 01:01:11.438, 141, 171, 148
2023/06/11 01:01:12.575, 235, 166, 146
2023/06/11 01:01:13.695, 143, 176, 138
2023/06/11 01:01:14.831, 131, 182, 139
2023/06/11 01:01:15.966, 131, 178, 158
2023/06/11 01:01:17.087, 132, 174, 158
2023/06/11 01:01:18.222, 136, 173, 140
2023/06/11 01:01:19.358, 140, 171, 139
2023/06/11 01:01:20.478, 136, 176, 140
2023/06/11 01:01:21.614, 129, 180, 139
2023/06/11 01:01:22.750, 137, 177, 144
2023/06/11 01:01:23.871, 142, 173, 153
2023/06/11 01:01:25.006, 129, 177, 178
2023/06/11 01:01:26.142, 140, 170, 147
2023/06/11 01:01:27.262, 145, 171, 133
2023/06/11 01:01:28.398, 177, 172, 133
2023/06/11 01:01:29.534, 148, 188, 135
2023/06/11 01:01:30.654, 131, 204, 138
2023/06/11 01:01:31.789, 126, 169, 134
2023/06/11 01:01:32.925, 137, 170, 137
2023/06/11 01:01:34.045, 146, 167, 134
2023/06/11 01:01:35.181, 138, 167, 137
2023/06/11 01:01:36.317, 144, 185, 138
2023/06/11 01:01:37.437, 136, 173, 142
2023/06/11 01:01:38.573, 134, 176, 139
2023/06/11 01:01:39.709, 129, 175, 141
2023/06/11 01:01:40.829, 134, 172, 158
2023/06/11 01:01:41.964, 135, 176, 142
2023/06/11 01:01:43.101, 138, 187, 135
2023/06/11 01:01:44.221, 172, 180, 134
2023/06/11 01:01:45.357, 145, 187, 139
2023/06/11 01:01:46.492, 140, 179, 144
2023/06/11 01:01:47.613, 137, 181, 142
2023/06/11 01:01:48.748, 135, 178, 139
2023/06/11 01:01:49.884, 135, 179, 132
2023/06/11 01:01:51.004, 131, 179, 136
2023/06/11 01:01:52.140, 131, 182, 140
2023/06/11 01:01:53.276, 132, 177, 139
2023/06/11 01:01:54.396, 133, 178, 138
2023/06/11 01:01:55.532, 136, 176, 149
2023/06/11 01:01:56.668, 135, 175, 152
2023/06/11 01:01:57.788, 132, 175, 142
2023/06/11 01:01:58.924, 131, 167, 139
2023/06/11 01:02:00.060, 134, 172, 137
2023/06/11 01:02:01.180, 132, 173, 137
2023/06/11 01:02:02.316, 133, 171, 137
2023/06/11 01:02:03.451, 135, 181, 140
2023/06/11 01:02:04.571, 137, 203, 151
2023/06/11 01:02:05.707, 131, 176, 139
2023/06/11 01:02:06.843, 132, 182, 142
2023/06/11 01:02:07.963, 135, 170, 136
2023/06/11 01:02:09.099, 242, 169, 140
2023/06/11 01:02:10.235, 142, 172, 143
2023/06/11 01:02:11.355, 127, 170, 151
2023/06/11 01:02:12.491, 131, 172, 146
2023/06/11 01:02:13.627, 129, 165, 141
2023/06/11 01:02:14.747, 127, 168, 141
2023/06/11 01:02:15.883, 127, 182, 134
2023/06/11 01:02:17.019, 125, 205, 141
2023/06/11 01:02:18.139, 130, 204, 137
2023/06/11 01:02:19.274, 128, 181, 133
2023/06/11 01:02:20.410, 131, 174, 131
2023/06/11 01:02:21.530, 132, 178, 135
2023/06/11 01:02:22.666, 132, 176, 147
2023/06/11 01:02:23.802, 122, 174, 134
2023/06/11 01:02:24.922, 120, 168, 135
2023/06/11 01:02:26.058, 121, 171, 132
2023/06/11 01:02:27.194, 124, 167, 133
2023/06/11 01:02:28.314, 127, 171, 135
2023/06/11 01:02:29.450, 127, 161, 133
2023/06/11 01:02:30.586, 132, 155, 129
2023/06/11 01:02:31.706, 127, 155, 125
2023/06/11 01:02:32.842, 125, 160, 130
2023/06/11 01:02:33.978, 123, 164, 133
2023/06/11 01:02:35.098, 126, 156, 133
2023/06/11 01:02:36.233, 126, 164, 127
2023/06/11 01:02:37.370, 125, 162, 131
2023/06/11 01:02:38.489, 122, 160, 131
2023/06/11 01:02:39.625, 121, 159, 135
2023/06/11 01:02:40.761, 123, 157, 143
2023/06/11 01:02:41.881, 127, 158, 147
2023/06/11 01:02:43.017, 131, 156, 141
2023/06/11 01:02:44.152, 132, 159, 132
2023/06/11 01:02:45.273, 131, 160, 135
2023/06/11 01:02:46.409, 126, 166, 132
2023/06/11 01:02:47.545, 130, 164, 134
2023/06/11 01:02:48.665, 123, 163, 128
2023/06/11 01:02:49.801, 124, 157, 126
2023/06/11 01:02:50.937, 122, 158, 130
2023/06/11 01:02:52.057, 125, 154, 132
2023/06/11 01:02:53.192, 132, 154, 134
2023/06/11 01:02:54.328, 127, 162, 129
2023/06/11 01:02:55.448, 123, 166, 130
2023/06/11 01:02:56.584, 120, 163, 133
2023/06/11 01:02:57.720, 120, 162, 133
2023/06/11 01:02:58.839, 118, 158, 133
2023/06/11 01:02:59.976, 119, 167, 132
2023/06/11 01:03:01.112, 121, 161, 131
2023/06/11 01:03:02.232, 122, 159, 130
2023/06/11 01:03:03.368, 122, 156, 189
2023/06/11 01:03:04.504, 119, 153, 127
2023/06/11 01:03:05.624, 121, 183, 122
2023/06/11 01:03:06.760, 122, 175, 122
2023/06/11 01:03:07.896, 122, 148, 123
2023/06/11 01:03:09.016, 121, 150, 124
2023/06/11 01:03:10.151, 121, 154, 122
2023/06/11 01:03:11.287, 122, 154, 134
2023/06/11 01:03:12.407, 122, 163, 132
2023/06/11 01:03:13.543, 122, 166, 128
2023/06/11 01:03:14.679, 124, 166, 132
2023/06/11 01:03:15.799, 125, 155, 132
2023/06/11 01:03:16.935, 124, 157, 134
2023/06/11 01:03:18.071, 121, 150, 134
2023/06/11 01:03:19.191, 113, 155, 132
2023/06/11 01:03:20.327, 114, 158, 128
2023/06/11 01:03:21.462, 117, 146, 129
2023/06/11 01:03:22.583, 118, 148, 126
2023/06/11 01:03:23.718, 117, 148, 128
2023/06/11 01:03:24.854, 127, 147, 126
2023/06/11 01:03:25.974, 117, 150, 127
2023/06/11 01:03:27.110, 156, 147, 125
2023/06/11 01:03:28.246, 117, 157, 126
2023/06/11 01:03:29.366, 123, 189, 124
2023/06/11 01:03:30.502, 122, 168, 123
2023/06/11 01:03:31.638, 124, 657, 121
2023/06/11 01:03:32.758, 116, 252, 124
2023/06/11 01:03:33.894, 112, 160, 123
2023/06/11 01:03:35.029, 118, 154, 123
2023/06/11 01:03:36.150, 118, 148, 127
2023/06/11 01:03:37.286, 116, 148, 185
2023/06/11 01:03:38.422, 117, 868, 127
2023/06/11 01:03:39.542, 119, 271, 128
2023/06/11 01:03:40.678, 123, 158, 129
2023/06/11 01:03:41.813, 122, 168, 138
2023/06/11 01:03:42.933, 124, 204, 132
2023/06/11 01:03:44.069, 118, 548, 127
2023/06/11 01:03:45.205, 115, 155, 131
2023/06/11 01:03:46.325, 121, 157, 125
2023/06/11 01:03:47.461, 117, 151, 127
2023/06/11 01:03:48.597, 117, 150, 129
2023/06/11 01:03:49.717, 120, 152, 129
2023/06/11 01:03:50.853, 120, 152, 135
2023/06/11 01:03:51.989, 116, 148, 130
2023/06/11 01:03:53.109, 121, 149, 130
2023/06/11 01:03:54.245, 119, 152, 126
2023/06/11 01:03:55.381, 119, 151, 124
2023/06/11 01:03:56.501, 113, 151, 128
2023/06/11 01:03:57.637, 114, 153, 125
2023/06/11 01:03:58.772, 112, 149, 125
2023/06/11 01:03:59.892, 116, 163, 126
2023/06/11 01:04:01.028, 115, 151, 126
2023/06/11 01:04:02.164, 115, 148, 131
2023/06/11 01:04:03.284, 114, 152, 133
2023/06/11 01:04:04.420, 116, 377, 130
2023/06/11 01:04:05.556, 116, 892, 131
2023/06/11 01:04:06.692, 115, 314, 127
2023/06/11 01:04:07.811, 110, 143, 129
2023/06/11 01:04:08.948, 112, 140, 196
2023/06/11 01:04:10.083, 113, 138, 220
2023/06/11 01:04:11.204, 114, 147, 232
2023/06/11 01:04:12.340, 115, 196, 126
2023/06/11 01:04:13.476, 114, 152, 131
2023/06/11 01:04:14.595, 112, 154, 129
2023/06/11 01:04:15.731, 115, 230, 128
2023/06/11 01:04:16.867, 116, 182, 128
2023/06/11 01:04:17.987, 115, 149, 127
2023/06/11 01:04:19.123, 118, 155, 129
2023/06/11 01:04:20.259, 119, 139, 123
2023/06/11 01:04:21.379, 112, 136, 130
2023/06/11 01:04:22.515, 112, 144, 125
2023/06/11 01:04:23.651, 117, 139, 134
2023/06/11 01:04:24.771, 115, 140, 132
2023/06/11 01:04:25.906, 116, 145, 131
2023/06/11 01:04:27.042, 115, 144, 129
2023/06/11 01:04:28.163, 114, 185, 211
2023/06/11 01:04:29.299, 116, 194, 145
2023/06/11 01:04:30.434, 111, 156, 133
2023/06/11 01:04:31.554, 115, 141, 128
2023/06/11 01:04:32.690, 117, 141, 122
2023/06/11 01:04:33.810, 118, 145, 127
2023/06/11 01:04:34.946, 113, 159, 132
2023/06/11 01:04:36.082, 111, 171, 125
2023/06/11 01:04:37.218, 110, 148, 122
2023/06/11 01:04:38.338, 110, 141, 123
2023/06/11 01:04:39.473, 111, 137, 125
2023/06/11 01:04:40.610, 116, 140, 126
2023/06/11 01:04:41.730, 116, 144, 127
2023/06/11 01:04:42.865, 118, 139, 127
2023/06/11 01:04:44.002, 116, 143, 128
2023/06/11 01:04:45.121, 120, 139, 124
2023/06/11 01:04:46.257, 115, 139, 126
2023/06/11 01:04:47.393, 121, 138, 126
2023/06/11 01:04:48.513, 116, 139, 135
2023/06/11 01:04:49.649, 114, 143, 127
2023/06/11 01:04:50.785, 117, 142, 125
2023/06/11 01:04:51.905, 110, 139, 125
2023/06/11 01:04:53.041, 111, 147, 121
2023/06/11 01:04:54.177, 113, 136, 122
2023/06/11 01:04:55.297, 110, 138, 122
2023/06/11 01:04:56.432, 114, 136, 122
2023/06/11 01:04:57.569, 113, 137, 124
2023/06/11 01:04:58.689, 113, 138, 127
2023/06/11 01:04:59.825, 114, 142, 126
2023/06/11 01:05:00.961, 123, 144, 124
2023/06/11 01:05:02.081, 111, 144, 122
2023/06/11 01:05:03.216, 112, 148, 123
2023/06/11 01:05:04.352, 111, 166, 120
2023/06/11 01:05:05.472, 110, 146, 120
2023/06/11 01:05:06.608, 107, 143, 126
2023/06/11 01:05:07.744, 113, 141, 123
2023/06/11 01:05:08.864, 111, 145, 121
2023/06/11 01:05:10.000, 111, 147, 119
2023/06/11 01:05:11.136, 105, 149, 119
2023/06/11 01:05:12.255, 106, 143, 121
2023/06/11 01:05:13.392, 110, 140, 122
2023/06/11 01:05:14.528, 110, 139, 122
2023/06/11 01:05:15.647, 108, 140, 120
2023/06/11 01:05:16.784, 106, 147, 123
2023/06/11 01:05:17.920, 109, 141, 128
2023/06/11 01:05:19.040, 109, 137, 121
2023/06/11 01:05:20.175, 109, 151, 119
2023/06/11 01:05:21.311, 111, 142, 121
2023/06/11 01:05:22.431, 109, 135, 123
2023/06/11 01:05:23.567, 105, 144, 123
2023/06/11 01:05:24.703, 108, 145, 122
2023/06/11 01:05:25.823, 110, 167, 121
2023/06/11 01:05:26.959, 107, 179, 123
2023/06/11 01:05:28.095, 109, 143, 120
2023/06/11 01:05:29.215, 112, 141, 122
2023/06/11 01:05:30.351, 107, 143, 120
2023/06/11 01:05:31.487, 103, 152, 122
2023/06/11 01:05:32.607, 109, 156, 127
2023/06/11 01:05:33.743, 112, 140, 129
2023/06/11 01:05:34.878, 112, 145, 124
2023/06/11 01:05:35.998, 114, 143, 119
2023/06/11 01:05:37.135, 200, 126, 118
2023/06/11 01:05:38.271, 140, 128, 116
2023/06/11 01:05:39.390, 104, 152, 116
2023/06/11 01:05:40.526, 109, 126, 116
2023/06/11 01:05:41.662, 106, 128, 114
2023/06/11 01:05:42.782, 109, 139, 111
2023/06/11 01:05:43.918, 112, 136, 114
2023/06/11 01:05:45.054, 108, 132, 113
2023/06/11 01:05:46.174, 131, 130, 116
2023/06/11 01:05:47.310, 109, 133, 119
2023/06/11 01:05:48.446, 115, 132, 120
2023/06/11 01:05:49.566, 124, 135, 117
2023/06/11 01:05:50.701, 130, 130, 120
2023/06/11 01:05:51.837, 108, 138, 158
2023/06/11 01:05:52.957, 109, 139, 121
2023/06/11 01:05:54.093, 107, 157, 121
2023/06/11 01:05:55.229, 104, 145, 118
2023/06/11 01:05:56.349, 103, 134, 115
2023/06/11 01:05:57.485, 104, 132, 118
2023/06/11 01:05:58.621, 108, 131, 121
2023/06/11 01:05:59.741, 106, 142, 122
2023/06/11 01:06:00.877, 106, 133, 118
2023/06/11 01:06:02.013, 106, 137, 117
2023/06/11 01:06:03.132, 113, 133, 117
2023/06/11 01:06:04.269, 115, 136, 116
2023/06/11 01:06:05.404, 114, 141, 118
2023/06/11 01:06:06.525, 154, 129, 117
2023/06/11 01:06:07.661, 107, 128, 115
2023/06/11 01:06:08.796, 106, 130, 116
2023/06/11 01:06:09.916, 109, 127, 111
2023/06/11 01:06:11.053, 109, 130, 115
2023/06/11 01:06:12.188, 106, 141, 113
2023/06/11 01:06:13.308, 105, 168, 117
2023/06/11 01:06:14.444, 103, 177, 117
2023/06/11 01:06:15.580, 101, 173, 116
2023/06/11 01:06:16.700, 103, 143, 114
2023/06/11 01:06:17.836, 106, 157, 116
2023/06/11 01:06:18.972, 104, 196, 115
2023/06/11 01:06:20.092, 108, 176, 115
2023/06/11 01:06:21.228, 113, 132, 114
2023/06/11 01:06:22.363, 108, 130, 115
2023/06/11 01:06:23.499, 110, 133, 114
2023/06/11 01:06:24.619, 102, 140, 113
2023/06/11 01:06:25.755, 103, 128, 114
2023/06/11 01:06:26.875, 105, 123, 114
2023/06/11 01:06:28.011, 104, 129, 114
2023/06/11 01:06:29.147, 110, 131, 112
2023/06/11 01:06:30.267, 109, 140, 113
2023/06/11 01:06:31.403, 99, 130, 116
2023/06/11 01:06:32.539, 102, 173, 114
2023/06/11 01:06:33.659, 106, 131, 117
2023/06/11 01:06:34.795, 104, 133, 118
2023/06/11 01:06:35.931, 104, 129, 116
2023/06/11 01:06:37.051, 126, 131, 119
2023/06/11 01:06:38.187, 106, 134, 119
2023/06/11 01:06:39.323, 150, 132, 116
2023/06/11 01:06:40.442, 104, 317, 113
2023/06/11 01:06:41.579, 104, 206, 114
2023/06/11 01:06:42.714, 108, 144, 110
2023/06/11 01:06:43.834, 119, 130, 114
2023/06/11 01:06:44.970, 103, 134, 110
2023/06/11 01:06:46.106, 104, 133, 113
2023/06/11 01:06:47.226, 104, 124, 137
2023/06/11 01:06:48.362, 102, 128, 145
2023/06/11 01:06:49.497, 106, 124, 110
2023/06/11 01:06:50.617, 107, 121, 109
2023/06/11 01:06:51.754, 111, 123, 110
2023/06/11 01:06:52.890, 108, 128, 112
2023/06/11 01:06:54.010, 102, 136, 115
2023/06/11 01:06:55.145, 101, 136, 113
2023/06/11 01:06:56.282, 102, 124, 113
2023/06/11 01:06:57.401, 104, 127, 113
2023/06/11 01:06:58.537, 105, 126, 111
2023/06/11 01:06:59.673, 114, 125, 112
2023/06/11 01:07:00.793, 112, 125, 118
2023/06/11 01:07:01.929, 107, 133, 119
2023/06/11 01:07:03.065, 104, 136, 117
2023/06/11 01:07:04.185, 105, 136, 122
2023/06/11 01:07:05.321, 106, 133, 117
2023/06/11 01:07:06.457, 109, 130, 118
2023/06/11 01:07:07.592, 106, 128, 115
2023/06/11 01:07:08.713, 108, 125, 120
2023/06/11 01:07:09.849, 106, 125, 118
2023/06/11 01:07:10.985, 102, 125, 121
2023/06/11 01:07:12.105, 101, 124, 119
2023/06/11 01:07:13.240, 105, 125, 119
2023/06/11 01:07:14.376, 104, 126, 126
2023/06/11 01:07:15.496, 105, 121, 119
2023/06/11 01:07:16.632, 107, 124, 116
2023/06/11 01:07:17.768, 105, 128, 114
2023/06/11 01:07:18.887, 105, 125, 111
2023/06/11 01:07:20.024, 106, 130, 114
2023/06/11 01:07:21.160, 102, 128, 117
2023/06/11 01:07:22.280, 104, 127, 114
2023/06/11 01:07:23.416, 103, 127, 110
2023/06/11 01:07:24.552, 102, 130, 109
2023/06/11 01:07:25.672, 102, 129, 113
2023/06/11 01:07:26.808, 103, 121, 115
2023/06/11 01:07:27.943, 105, 121, 112
2023/06/11 01:07:29.063, 100, 122, 112
2023/06/11 01:07:30.199, 102, 122, 111
2023/06/11 01:07:31.319, 99, 123, 116
2023/06/11 01:07:32.455, 100, 187, 114
2023/06/11 01:07:33.591, 99, 147, 109
2023/06/11 01:07:34.711, 104, 121, 111
2023/06/11 01:07:35.847, 102, 123, 115
2023/06/11 01:07:36.983, 104, 121, 116
2023/06/11 01:07:38.103, 105, 120, 115
2023/06/11 01:07:39.239, 100, 120, 109
2023/06/11 01:07:40.375, 104, 121, 112
2023/06/11 01:07:41.495, 114, 135, 112
2023/06/11 01:07:42.631, 106, 136, 110
2023/06/11 01:07:43.767, 103, 128, 111
2023/06/11 01:07:44.886, 104, 124, 108
2023/06/11 01:07:46.022, 101, 121, 109
2023/06/11 01:07:47.158, 99, 118, 111
2023/06/11 01:07:48.278, 101, 122, 113
2023/06/11 01:07:49.414, 101, 125, 110
2023/06/11 01:07:50.550, 104, 122, 118
2023/06/11 01:07:51.670, 103, 125, 218
2023/06/11 01:07:52.806, 102, 119, 179
2023/06/11 01:07:53.942, 102, 118, 109
2023/06/11 01:07:55.062, 101, 120, 111
2023/06/11 01:07:56.198, 106, 117, 111
2023/06/11 01:07:57.334, 101, 118, 110
2023/06/11 01:07:58.454, 101, 123, 113
2023/06/11 01:07:59.589, 101, 123, 116
2023/06/11 01:08:00.725, 104, 124, 114
2023/06/11 01:08:01.845, 102, 119, 115
2023/06/11 01:08:02.981, 100, 121, 117
2023/06/11 01:08:04.117, 104, 123, 112
2023/06/11 01:08:05.237, 111, 120, 114
2023/06/11 01:08:06.373, 108, 123, 116
2023/06/11 01:08:07.509, 99, 124, 113
2023/06/11 01:08:08.629, 100, 122, 113
2023/06/11 01:08:09.764, 99, 119, 115
2023/06/11 01:08:10.900, 102, 117, 119
2023/06/11 01:08:12.021, 101, 118, 126
2023/06/11 01:08:13.157, 100, 122, 122
2023/06/11 01:08:14.293, 97, 118, 123
2023/06/11 01:08:15.412, 99, 119, 123
2023/06/11 01:08:16.549, 100, 119, 124
2023/06/11 01:08:17.684, 101, 119, 132
2023/06/11 01:08:18.804, 100, 119, 137
2023/06/11 01:08:19.939, 100, 119, 136
2023/06/11 01:08:21.076, 99, 118, 141
2023/06/11 01:08:22.196, 100, 122, 137
2023/06/11 01:08:23.332, 100, 121, 140
2023/06/11 01:08:24.468, 100, 119, 142
2023/06/11 01:08:25.588, 102, 118, 142
2023/06/11 01:08:26.724, 98, 121, 142
2023/06/11 01:08:27.844, 101, 119, 141
2023/06/11 01:08:28.980, 101, 122, 142
2023/06/11 01:08:30.116, 100, 123, 139
2023/06/11 01:08:31.236, 101, 120, 141
2023/06/11 01:08:32.372, 101, 117, 142
2023/06/11 01:08:33.508, 99, 144, 141
2023/06/11 01:08:34.627, 100, 132, 142
2023/06/11 01:08:35.763, 101, 119, 145
2023/06/11 01:08:36.899, 102, 116, 135
2023/06/11 01:08:38.019, 101, 117, 134
2023/06/11 01:08:39.155, 98, 120, 135
2023/06/11 01:08:40.291, 98, 121, 139
2023/06/11 01:08:41.411, 101, 119, 138
2023/06/11 01:08:42.547, 97, 119, 135
2023/06/11 01:08:43.683, 102, 115, 137
2023/06/11 01:08:44.803, 100, 116, 137
2023/06/11 01:08:45.939, 100, 120, 137
2023/06/11 01:08:47.074, 99, 119, 139
2023/06/11 01:08:48.195, 101, 117, 137
2023/06/11 01:08:49.331, 98, 117, 138
2023/06/11 01:08:50.450, 101, 119, 141
2023/06/11 01:08:51.586, 103, 119, 136
2023/06/11 01:08:52.722, 101, 115, 137
2023/06/11 01:08:53.858, 100, 115, 137
2023/06/11 01:08:54.978, 99, 116, 151
2023/06/11 01:08:56.114, 98, 120, 143
2023/06/11 01:08:57.234, 96, 119, 130
2023/06/11 01:08:58.370, 99, 117, 125
2023/06/11 01:08:59.506, 99, 115, 159
2023/06/11 01:09:00.626, 99, 115, 199
2023/06/11 01:09:01.762, 100, 114, 122
2023/06/11 01:09:02.897, 101, 115, 109
2023/06/11 01:09:04.018, 100, 114, 101
2023/06/11 01:09:05.154, 105, 117, 107
2023/06/11 01:09:06.290, 120, 120, 106
2023/06/11 01:09:07.409, 106, 117, 104
2023/06/11 01:09:08.545, 98, 116, 102
2023/06/11 01:09:09.681, 96, 113, 105
2023/06/11 01:09:10.801, 97, 114, 107
2023/06/11 01:09:11.937, 95, 116, 104
2023/06/11 01:09:13.057, 98, 117, 111
2023/06/11 01:09:14.193, 99, 114, 116
2023/06/11 01:09:15.329, 100, 120, 112
2023/06/11 01:09:16.449, 99, 114, 110
2023/06/11 01:09:17.585, 95, 116, 115
2023/06/11 01:09:18.721, 96, 115, 116
2023/06/11 01:09:19.841, 96, 114, 121
2023/06/11 01:09:20.977, 98, 114, 117
2023/06/11 01:09:22.096, 99, 114, 123
2023/06/11 01:09:23.232, 97, 113, 113
2023/06/11 01:09:24.368, 103, 113, 102
2023/06/11 01:09:25.488, 97, 115, 102
2023/06/11 01:09:26.624, 97, 115, 104
2023/06/11 01:09:27.744, 96, 114, 105
2023/06/11 01:09:28.880, 97, 113, 104
2023/06/11 01:09:30.016, 99, 116, 104
2023/06/11 01:09:31.136, 97, 118, 104
2023/06/11 01:09:32.272, 98, 116, 107
2023/06/11 01:09:33.408, 99, 115, 104
2023/06/11 01:09:34.528, 140, 122, 105
2023/06/11 01:09:35.664, 98, 123, 104
2023/06/11 01:09:36.784, 99, 114, 110
2023/06/11 01:09:37.920, 97, 114, 110
2023/06/11 01:09:39.055, 97, 112, 104
2023/06/11 01:09:40.175, 95, 118, 101
2023/06/11 01:09:41.311, 96, 115, 102
2023/06/11 01:09:42.447, 96, 114, 105
2023/06/11 01:09:43.567, 98, 116, 105
2023/06/11 01:09:44.703, 100, 118, 104
2023/06/11 01:09:45.823, 97, 120, 104
2023/06/11 01:09:46.959, 104, 119, 105
2023/06/11 01:09:48.095, 97, 114, 104
2023/06/11 01:09:49.215, 99, 112, 103
2023/06/11 01:09:50.351, 98, 115, 102
2023/06/11 01:09:51.486, 98, 119, 103
2023/06/11 01:09:52.607, 98, 119, 103
2023/06/11 01:09:53.743, 97, 118, 107
2023/06/11 01:09:54.862, 95, 111, 101
2023/06/11 01:09:55.998, 97, 112, 100
2023/06/11 01:09:57.133, 97, 115, 103
2023/06/11 01:09:58.254, 97, 113, 103
2023/06/11 01:09:59.390, 98, 116, 103
2023/06/11 01:10:00.526, 95, 115, 101
2023/06/11 01:10:01.646, 99, 115, 104
2023/06/11 01:10:02.782, 98, 114, 104
2023/06/11 01:10:03.902, 99, 115, 105
2023/06/11 01:10:05.037, 97, 112, 104
2023/06/11 01:10:06.174, 96, 111, 104
2023/06/11 01:10:07.294, 97, 110, 105
2023/06/11 01:10:08.430, 94, 110, 101
2023/06/11 01:10:09.550, 95, 109, 99
2023/06/11 01:10:10.685, 93, 109, 103
2023/06/11 01:10:11.821, 95, 107, 103
2023/06/11 01:10:12.941, 95, 109, 102
2023/06/11 01:10:14.077, 95, 110, 106
2023/06/11 01:10:15.213, 97, 109, 103
2023/06/11 01:10:16.333, 96, 111, 101
2023/06/11 01:10:17.469, 96, 117, 102
2023/06/11 01:10:18.588, 92, 115, 103
2023/06/11 01:10:19.725, 95, 112, 102
2023/06/11 01:10:20.861, 95, 112, 105
2023/06/11 01:10:21.981, 96, 112, 103
2023/06/11 01:10:23.117, 96, 109, 103
2023/06/11 01:10:24.253, 96, 110, 106
2023/06/11 01:10:25.373, 95, 112, 101
2023/06/11 01:10:26.508, 94, 113, 108
2023/06/11 01:10:27.628, 96, 111, 108
2023/06/11 01:10:28.764, 93, 111, 103
2023/06/11 01:10:29.900, 95, 112, 102
2023/06/11 01:10:31.020, 96, 111, 102
2023/06/11 01:10:32.156, 94, 112, 100
2023/06/11 01:10:33.276, 96, 111, 102
2023/06/11 01:10:34.412, 97, 114, 104
2023/06/11 01:10:35.548, 94, 111, 107
2023/06/11 01:10:36.668, 93, 111, 109
2023/06/11 01:10:37.804, 96, 112, 108
2023/06/11 01:10:38.940, 96, 108, 101
2023/06/11 01:10:40.060, 95, 109, 101
2023/06/11 01:10:41.196, 97, 110, 103
2023/06/11 01:10:42.316, 99, 110, 102
2023/06/11 01:10:43.451, 96, 108, 102
2023/06/11 01:10:44.587, 98, 110, 103
2023/06/11 01:10:45.707, 96, 112, 101
2023/06/11 01:10:46.843, 95, 109, 101
2023/06/11 01:10:47.963, 95, 112, 101
2023/06/11 01:10:49.099, 94, 113, 100
2023/06/11 01:10:50.235, 93, 110, 103
2023/06/11 01:10:51.355, 91, 111, 102
2023/06/11 01:10:52.491, 96, 108, 102
2023/06/11 01:10:53.627, 96, 105, 101
2023/06/11 01:10:54.747, 93, 109, 101
2023/06/11 01:10:55.882, 92, 110, 103
2023/06/11 01:10:57.003, 93, 110, 102
2023/06/11 01:10:58.138, 96, 111, 102
2023/06/11 01:10:59.275, 93, 112, 103
2023/06/11 01:11:00.394, 96, 112, 103
2023/06/11 01:11:01.530, 96, 115, 99
2023/06/11 01:11:02.666, 95, 117, 100
2023/06/11 01:11:03.786, 93, 116, 101
2023/06/11 01:11:04.922, 93, 115, 105
2023/06/11 01:11:06.042, 94, 117, 102
2023/06/11 01:11:07.178, 96, 120, 100
2023/06/11 01:11:08.314, 96, 125, 103
2023/06/11 01:11:09.434, 95, 121, 101
2023/06/11 01:11:10.570, 93, 119, 102
2023/06/11 01:11:11.689, 97, 120, 103
2023/06/11 01:11:12.826, 95, 118, 101
2023/06/11 01:11:13.962, 94, 118, 101
2023/06/11 01:11:15.082, 94, 120, 100
2023/06/11 01:11:16.217, 92, 119, 104
2023/06/11 01:11:17.353, 95, 123, 101
2023/06/11 01:11:18.473, 96, 120, 100
2023/06/11 01:11:19.609, 96, 118, 106